Regional Weather Roundup
Issued by NWS Midland/Odessa, TX

Home | Current Version | Previous Version | Text Only | Print | Product List | Glossary On
Versions: 1 2 3 4 5 6 7 8 9 10 11 12 13 14 15 16 17 18 19 20 21 22 23 24 25 26 27 28 29 30 31 32 33 34 35 36 37 38 39 40 41 42 43 44 45 46 47 48 49 50
000
ASUS44 KMAF 261810
RWRMAF
MIDLAND AREA WEATHER ROUNDUP
NATIONAL WEATHER SERVICE MIDLAND TX
100 PM CDT THU MAY 26 2016

...IN SOUTHWEST TEXAS AND SOUTHEAST NEW MEXICO...

CITY           SKY/WX    TMP DP  RH WIND       PRES   REMARKS
ALPINE         SUNNY     87  42  21 SW18G37   30.01F
ANDREWS        FAIR      89  32  13 W18G28    29.87F
ARTESIA        SUNNY     86  23  10 SW24G33   29.87F
BIG SPRING     SUNNY     90  41  17 S13G20    29.84F
CARLSBAD       SUNNY     89  23   9 W18G26    29.84F
DRYDEN           N/A     97  52  21 S16       29.82F
FORT STOCKTON  MOSUNNY   95  44  17 SW21G31   29.84F
GUAD PASS      NOT AVBL
HOBBS          SUNNY     84  28  13 S12G17    29.88F
MARFA          MOSUNNY   83  43  24 SW29      29.99F
MIDLAND AIRPK  SUNNY     94  28   9 S16       29.84F
MIDLAND INTL   SUNNY     95  31  10 SW15G23   29.83F
ODESSA         SUNNY     93  30  10 SW22G32   29.85F
PECOS          SUNNY     93  40  16 W17G24    29.82F
PRESIDIO       FAIR      92  46  19 S16G22    29.87F
SEMINOLE       SUNNY     88  33  13 SW17G25   29.87F
SNYDER           N/A     87  62  42 SW9G18    29.83F
WINK           SUNNY     91  31  11 MISG      29.83F
$$
...OTHER STATIONS IN TEXAS...

CITY           SKY/WX    TMP DP  RH WIND       PRES   REMARKS
ABILENE        PTSUNNY   84  71  65 S15       29.84F
AMARILLO       SUNNY     88  37  16 SW14G21   29.81F
AUSTIN         LGT RAIN  86  76  71 S17       29.86F
BROWNSVILLE    PTSUNNY   87  76  69 SE22G30   29.93F
CORPUS CHRISTI CLOUDY    87  77  72 S24G33    29.88F
DALLAS FTW     CLOUDY    80  63  55 SE12      29.86F
DEL RIO        SUNNY     90  71  53 SE14G22   29.81F
EL PASO        MOSUNNY   79  31  17 SW17G29   29.94F
HOUSTON INT    CLOUDY    81  75  82 SE16      29.93S
LUBBOCK        MOSUNNY   88  32  13 SW16G28   29.83F
SAN ANGELO     SUNNY     87  68  52 S18G26    29.84F
SAN ANTONIO    PTSUNNY   84  76  76 S10       29.88F HAZE
WACO           CLOUDY    72  68  87 SE15      29.91R
WICHITA FALLS  NOT AVBL
$$
...OTHER LOCATIONS IN NEW MEXICO...

CITY           SKY/WX    TMP DP  RH WIND       PRES   REMARKS
ALAMAGORDO     SUNNY     77  18  10 SW16G30   29.95F
ALBUQUERQUE    MOSUNNY   70  18  13 SW8       29.93F
CANNON AFB     SUNNY     80  22  12 SW23G30   29.87F
CLOVIS         SUNNY     81  27  13 SW18G26   29.88S
HOLLOMAN AFB   SUNNY     77  19  11 SW23G31   29.93F
ROSWELL        SUNNY     87  19   8 SW20G29   29.83F
RUIDOSO          N/A     64  16  15 SW33G43   30.02F
SANTA FE       SUNNY     68  15  13 SW10G25   29.93F
TRUTH OR CONSE SUNNY     74   8   8 SW22G29   29.93F
TUCUMCARI      SUNNY     85  15   7 SW21G37   29.80F
$$




USA.gov is the U.S. government's official web portal to all federal, state and local government web resources and services.